Location: Cartersville (historical)
(42.9944°N, 93.0869°W)
Time: 10:41:54
(UTC+00:00)

ISS - Visible Passes

Search period start: 12 October 2024 00:00
Search period end: 22 October 2024 00:00
Orbit: 411 x 423 km, 51.6° (Epoch: 12 October)

Date Brightness Start Highest point End Pass type
(mag) Time Alt. Az. Time Alt. Az. Time Alt. Az.
15 Oct -0.5 11:20:46 10° SSE 11:21:46 11° SE 11:22:47 10° ESE visible
17 Oct -1.9 11:17:56 10° SSW 11:20:51 29° SE 11:23:47 10° ENE visible
18 Oct -1.3 10:30:59 15° SSE 10:32:12 17° SE 10:34:28 10° E visible
19 Oct -3.7 11:17:36 21° SW 11:19:40 79° SE 11:22:59 10° ENE visible
20 Oct -2.7 10:31:02 43° ESE 10:31:02 43° ESE 10:33:52 10° ENE visible
21 Oct -0.3 09:44:14 11° E 09:44:14 11° E 09:44:29 10° ENE visible
21 Oct -3.3 11:17:06 31° WNW 11:18:12 45° NNW 11:21:25 10° NE visible
